User: anonymous   Login
Location: Unspecified
(0.0000°N, 0.0000°E)
Time: 01:34:12
(UTC+00:00)
Language:

SR - Orbit

View from above orbital plane
View from above orbital plane
View from above satellite
View from above satellite

Ground track
Ground track

The orbit data is extracted from the following two-line orbital elements,

1    46U 60007B   18112.17025973 +.00000073 +00000-0 +37578-4 0  9994
2    46 066.6922 013.5591 0211404 355.9017 004.0349 14.49138640025039
Epoch (UTC): 22 April 2018 04:05:10
Eccentricity: 0.0211404
inclination: 66.6922°
perigee height: 578 km
apogee height: 879 km
right ascension of ascending node: 13.5591°
argument of perigee: 355.9017°
revolutions per day: 14.49138640
mean anomaly at epoch: 4.0349°
orbit number at epoch: 2503

The dashed part of the orbit path shows where the satellite is in the earth's shadow,  

DLR